Voltar ao catálogo

STARLINK-31207

AtivoComunicaçõesVLEO
NORAD 59035·PAYLOAD·🇺🇸 United States

Lançado Feb 25, 2024 de Cape Canaveral Space Force Station

Loading…

Próximas Passagens (próximas 24 horas)

TLE

AtualizadoSource: CelesTrak SupGP

Época: Sep 15, 2026, 02:54 UTC

1 59035C 24038N   26258.12131944 -.00016785  00000+0 -60861-3 0  2587
2 59035  43.0029  33.7350 0001489 273.4610 300.3887 15.27551031    18

Acompanhe STARLINK-31207 em tempo real com AllMySat

Download on the App Store